Date String (YYYY-MM-DD hh:mm:ss) UTC,Instrument flags,Ambient pressure (hPa),Sample flow (lpm),Bypass flow (lpm),Sample temperature (°C),Ambient temperature (°C),ASC tube jacket temperature (°C),LED temperature (°C),Box temperature (°C),Sample RH (%),Span deviation,Mass concentration (μg/m³),Mass concentration (μg/m³),Mass concentration (μg/m³)
DateTimeUTC,F1_M11,P_M11,Q1_M11,Q2_M11,T1_M11,T2_M11,T3_M11,T4_M11,T5_M11,U1_M11,ZSPAN_M11,X0_M11,X2_M11,X1_M11
2023-05-11 07:00:00,,0827.4,5.00,0.00,25.7,23.8,00.0,34.2,27.3,32.0,-000.3,0010.18,0005.12,0003.90
2023-05-11 07:01:00,,0827.4,5.00,0.00,25.7,23.8,00.0,34.2,27.3,32.0,-000.1,0010.30,0005.19,0003.95
2023-05-11 07:02:00,,0827.3,4.99,0.00,25.6,23.8,00.0,34.2,27.3,32.1,0000.0,0010.26,0005.19,0003.99
2023-05-11 07:03:00,,0827.3,5.00,0.00,25.6,23.7,00.0,34.2,27.3,32.2,0000.2,0009.88,0005.20,0004.02
2023-05-11 07:04:00,,0827.3,5.00,0.00,25.6,23.7,00.0,34.2,27.3,32.2,0000.4,0009.57,0005.19,0004.04
2023-05-11 07:05:00,,0827.2,5.00,0.00,25.6,23.7,00.0,34.2,27.3,32.3,-000.4,0009.59,0005.23,0004.10
2023-05-11 07:06:00,,0827.2,5.01,0.00,25.6,23.7,00.0,34.2,27.3,32.3,-000.2,0009.69,0005.30,0004.15
2023-05-11 07:07:00,,0827.2,4.99,0.00,25.6,23.7,00.0,34.1,27.3,32.3,-000.4,0009.74,0005.34,0004.20
2023-05-11 07:08:00,,0827.2,5.00,0.00,25.6,23.7,00.0,34.1,27.2,32.4,-000.2,0009.90,0005.41,0004.29
2023-05-11 07:09:00,,0827.2,5.00,0.00,25.6,23.7,00.0,34.1,27.2,32.3,0000.0,0010.07,0005.49,0004.34
2023-05-11 07:10:00,,0827.1,5.00,0.00,25.6,23.7,00.0,34.1,27.2,32.2,0000.0,0010.12,0005.50,0004.36
2023-05-11 07:11:00,,0827.1,5.00,0.00,25.6,23.8,00.0,34.1,27.2,32.2,0000.0,0009.88,0005.44,0004.37
2023-05-11 07:12:00,,0827.1,5.00,0.00,25.6,23.7,00.0,34.1,27.2,32.2,0000.0,0009.79,0005.41,0004.36
2023-05-11 07:13:00,,0827.1,5.00,0.00,25.6,23.7,00.0,34.1,27.2,32.2,0000.0,0009.74,0005.38,0004.35
2023-05-11 07:14:00,,0827.1,4.99,0.00,25.6,23.7,00.0,34.1,27.2,32.2,0000.0,0009.73,0005.35,0004.32
2023-05-11 07:15:00,,0827.1,4.99,0.00,25.5,23.7,00.0,34.1,27.2,32.1,0000.0,0009.76,0005.34,0004.28
2023-05-11 07:16:00,,0827.1,4.99,0.00,25.5,23.7,00.0,34.1,27.2,32.2,0000.0,0009.81,0005.31,0004.23
2023-05-11 07:17:00,,0827.1,5.00,0.00,25.5,23.6,00.0,34.0,27.2,32.2,0000.0,0009.84,0005.21,0004.14
2023-05-11 07:18:00,,0827.1,5.00,0.00,25.5,23.6,00.0,34.0,27.1,32.2,0000.0,0009.74,0005.11,0004.05
2023-05-11 07:19:00,,0827.1,5.00,0.00,25.5,23.6,00.0,34.0,27.1,32.1,0000.0,0009.38,0004.96,0003.96
2023-05-11 07:20:00,,0827.0,5.00,0.00,25.5,23.5,00.0,34.0,27.1,32.1,0000.0,0009.15,0004.83,0003.84
2023-05-11 07:21:00,,0827.0,5.00,0.00,25.5,23.5,00.0,34.0,27.1,32.1,0000.0,0008.94,0004.69,0003.74
2023-05-11 07:22:00,,0827.0,5.00,0.00,25.4,23.4,00.0,34.0,27.1,32.1,0000.0,0008.81,0004.57,0003.64
2023-05-11 07:23:00,,0826.9,5.00,0.00,25.4,23.4,00.0,34.0,27.0,32.0,0000.0,0008.63,0004.45,0003.56
2023-05-11 07:24:00,,0826.9,5.00,0.00,25.4,23.4,00.0,34.0,27.0,32.0,0000.0,0008.48,0004.34,0003.48
2023-05-11 07:25:00,,0826.9,5.00,0.00,25.4,23.4,00.0,33.9,27.0,32.1,0000.0,0008.42,0004.28,0003.42
2023-05-11 07:26:00,,0826.9,4.99,0.00,25.4,23.4,00.0,33.9,27.0,32.1,0000.0,0008.24,0004.17,0003.37
2023-05-11 07:27:00,,0826.9,4.99,0.00,25.4,23.4,00.0,33.9,27.0,32.1,0000.0,0008.10,0004.10,0003.31
2023-05-11 07:28:00,,0826.8,4.99,0.00,25.4,23.4,00.0,33.9,27.0,32.2,0000.0,0007.89,0004.04,0003.26
2023-05-11 07:29:00,,0826.8,5.00,0.00,25.4,23.4,00.0,33.9,27.0,32.1,0000.0,0007.90,0004.02,0003.21
2023-05-11 07:30:00,,0826.8,5.00,0.00,25.3,23.4,00.0,33.9,27.0,32.1,0000.0,0007.95,0003.99,0003.18
2023-05-11 07:31:00,,0826.8,5.00,0.00,25.3,23.4,00.0,33.9,27.0,32.1,0000.0,0007.89,0003.95,0003.15
2023-05-11 07:32:00,,0826.7,5.00,0.00,25.3,23.4,00.0,33.9,27.0,32.1,0000.0,0007.92,0003.98,0003.14
2023-05-11 07:33:00,,0826.6,5.00,0.00,25.3,23.4,00.0,33.8,27.0,32.1,0000.0,0007.86,0004.00,0003.13
2023-05-11 07:34:00,,0826.6,5.00,0.00,25.3,23.4,00.0,33.8,26.9,32.0,0000.0,0007.85,0004.00,0003.12
2023-05-11 07:35:00,,0826.6,5.00,0.00,25.3,23.4,00.0,33.8,26.9,32.0,0000.0,0007.89,0004.00,0003.10
2023-05-11 07:36:00,,0826.5,5.00,0.00,25.3,23.4,00.0,33.8,27.0,31.9,0000.0,0007.85,0004.01,0003.10
2023-05-11 07:37:00,,0826.4,5.00,0.00,25.3,23.4,00.0,33.8,27.0,31.9,0000.0,0007.85,0004.01,0003.09
2023-05-11 07:38:00,,0826.2,5.00,0.00,25.3,23.5,00.0,33.8,27.0,31.9,0000.0,0007.84,0004.00,0003.09
2023-05-11 07:39:00,,0826.2,5.00,0.00,25.3,23.5,00.0,33.8,27.0,31.7,0000.0,0007.78,0003.95,0003.04
2023-05-11 07:40:00,,0826.0,5.00,0.00,25.3,23.5,00.0,33.8,27.0,31.7,0000.0,0007.68,0003.95,0003.02
2023-05-11 07:41:00,,0825.9,5.00,0.00,25.3,23.6,00.0,33.8,27.0,31.6,0000.0,0007.67,0003.93,0002.94
2023-05-11 07:42:00,,0825.7,5.00,0.00,25.3,23.6,00.0,33.8,27.0,31.4,0000.0,0007.68,0003.92,0002.85
2023-05-11 07:43:00,,0825.5,5.00,0.00,25.3,23.6,00.0,33.8,27.0,31.4,0000.0,0007.64,0003.88,0002.79
2023-05-11 07:44:00,,0825.2,5.00,0.00,25.3,23.7,00.0,33.8,27.1,31.2,0000.0,0007.55,0003.81,0002.72
2023-05-11 07:45:00,,0824.9,5.00,0.00,25.3,23.7,00.0,33.8,27.1,31.2,0000.0,0007.60,0003.75,0002.62
2023-05-11 07:46:00,,0824.6,5.00,0.00,25.4,23.7,00.0,33.8,27.1,30.8,0000.0,0007.46,0003.67,0002.54
2023-05-11 07:47:00,,0824.2,5.00,0.00,25.4,23.8,00.0,33.8,27.1,30.5,0000.0,0007.02,0003.50,0002.37
2023-05-11 07:48:00,,0823.8,5.00,0.00,25.4,23.7,00.0,33.8,27.1,30.6,0000.0,0006.69,0003.37,0002.21
2023-05-11 07:49:00,,0823.3,5.01,0.00,25.4,23.7,00.0,33.8,27.1,30.6,0000.0,0006.53,0003.27,0002.06
2023-05-11 07:50:00,,0823.0,5.00,0.00,25.4,23.7,00.0,33.8,27.0,30.4,0000.0,0007.44,0003.20,0001.93
2023-05-11 07:51:00,,0822.7,5.00,0.00,25.4,23.7,00.0,33.8,27.0,30.1,0000.0,0007.80,0003.04,0001.78
2023-05-11 07:52:00,,0822.7,4.99,0.00,25.4,23.6,00.0,33.8,27.0,29.9,0000.0,0007.50,0002.77,0001.64
2023-05-11 07:53:00,,0822.5,5.01,0.00,25.4,23.6,00.0,33.8,27.0,29.9,0000.0,0007.32,0002.57,0001.55
2023-05-11 07:54:00,,0822.4,5.00,0.00,25.4,23.6,00.0,33.8,27.0,29.8,0000.0,0007.00,0002.37,0001.46
2023-05-11 07:55:00,,0822.3,4.99,0.00,25.3,23.6,00.0,33.8,27.0,29.8,0000.0,0006.72,0002.21,0001.36
2023-05-11 07:56:00,,0822.4,4.99,0.00,25.3,23.6,00.0,33.8,27.0,30.0,0000.0,0006.36,0002.10,0001.31
2023-05-11 07:57:00,,0822.4,5.00,0.00,25.3,23.5,00.0,33.8,26.9,30.2,0000.0,0006.14,0002.06,0001.27
2023-05-11 07:58:00,,0822.8,5.00,0.00,25.3,23.5,00.0,33.8,26.9,30.4,0000.0,0006.22,0002.09,0001.31
2023-05-11 07:59:00,,0822.7,5.01,0.00,25.3,23.4,00.0,33.8,26.8,30.4,0000.0,0006.53,0002.23,0001.34
